TimePDT,TemperatureF,Dew PointF,Humidity,Sea Level PressureIn,VisibilityMPH,Wind Direction,Wind SpeedMPH,Gust SpeedMPH,PrecipitationIn,Events,Conditions,WindDirDegrees,DateUTC
12:53 AM,50.0,37.9,63,29.94,10.0,NNW,3.5,-,N/A,,Clear,340,2013-05-26 07:53:00
1:53 AM,46.9,37.0,68,29.94,10.0,North,4.6,-,N/A,,Clear,10,2013-05-26 08:53:00
2:53 AM,46.0,37.9,73,29.94,10.0,North,5.8,-,N/A,,Clear,350,2013-05-26 09:53:00
3:53 AM,46.0,37.9,73,29.94,10.0,North,4.6,-,N/A,,Clear,10,2013-05-26 10:53:00
4:53 AM,46.0,37.9,73,29.94,10.0,North,6.9,-,N/A,,Partly Cloudy,360,2013-05-26 11:53:00
5:53 AM,48.0,39.9,74,29.94,10.0,North,8.1,-,N/A,,Mostly Cloudy,360,2013-05-26 12:53:00
6:53 AM,52.0,41.0,66,29.94,10.0,North,6.9,-,N/A,,Clear,10,2013-05-26 13:53:00
7:53 AM,55.9,39.9,55,29.94,10.0,NE,6.9,-,N/A,,Overcast,50,2013-05-26 14:53:00
8:53 AM,59.0,41.0,51,29.95,10.0,NE,6.9,-,N/A,,Scattered Clouds,50,2013-05-26 15:53:00
9:53 AM,61.0,39.9,46,29.94,10.0,ENE,5.8,-,N/A,,Overcast,70,2013-05-26 16:53:00
10:53 AM,63.0,39.9,43,29.94,10.0,Variable,3.5,-,0.00,Rain,Light Rain,0,2013-05-26 17:53:00
11:53 AM,66.9,37.9,34,29.93,10.0,Variable,4.6,-,0.00,,Scattered Clouds,0,2013-05-26 18:53:00
12:53 PM,71.1,39.0,31,29.91,10.0,West,11.5,-,N/A,,Mostly Cloudy,280,2013-05-26 19:53:00
1:53 PM,71.1,37.9,30,29.91,10.0,West,10.4,-,N/A,,Mostly Cloudy,260,2013-05-26 20:53:00
2:53 PM,70.0,39.0,32,29.90,10.0,West,12.7,19.6,N/A,,Scattered Clouds,270,2013-05-26 21:53:00
3:53 PM,71.1,36.0,28,29.89,10.0,SSW,11.5,17.3,N/A,,Scattered Clouds,210,2013-05-26 22:53:00
4:53 PM,71.1,37.9,30,29.88,10.0,SW,12.7,19.6,N/A,,Clear,230,2013-05-26 23:53:00
5:53 PM,68.0,41.0,37,29.88,10.0,South,11.5,-,N/A,,Mostly Cloudy,180,2013-05-27 00:53:00
6:53 PM,66.9,41.0,39,29.89,10.0,SSW,9.2,-,N/A,,Overcast,210,2013-05-27 01:53:00
7:53 PM,64.9,44.1,47,29.89,10.0,SSW,9.2,-,N/A,,Overcast,200,2013-05-27 02:53:00
8:53 PM,62.1,46.0,56,29.90,10.0,South,8.1,-,N/A,,Overcast,190,2013-05-27 03:53:00
9:53 PM,60.1,46.0,60,29.90,10.0,SSE,3.5,-,N/A,,Overcast,160,2013-05-27 04:53:00
10:53 PM,57.9,46.0,65,29.90,10.0,Calm,Calm,-,N/A,,Mostly Cloudy,0,2013-05-27 05:53:00
11:53 PM,59.0,42.1,53,29.89,10.0,NNW,5.8,-,N/A,,Scattered Clouds,330,2013-05-27 06:53:00